{"data":{"norad_id":66862,"epoch":"2026-05-25T01:09:42.720768Z","epoch_age_seconds":81275,"freshness":"FRESH","line1":"1 66862U 25281Q   26145.04841112  .00010743  00000+0  39926-3 0  9991","line2":"2 66862  43.0012 272.2347 0000729 345.3556  14.7274 15.27585124 27864","mean_motion":15.27585124,"eccentricity":7.29e-5,"inclination_deg":43.0012,"raan_deg":272.2347,"arg_perigee_deg":345.3556,"mean_anomaly_deg":14.7274,"bstar":0.00039926,"rev_number":2786,"period_min":94.266432513387,"perigee_km":482.5335736353,"apogee_km":483.53393233108,"semimajor_km":6861.1707529832,"source":"CELESTRAK","updated_at":"2026-05-25T13:38:21.343195Z"}}